Terug naar catalogus

FENGYUN 1C DEB

ActiefSSO
NORAD 31099·DEBRIS·🇨🇳 China

Gelanceerd May 10, 1999 vanaf Taiyuan Satellite Launch Center

Loading…

Volgende Passages (komende 24 uur)

TLE

VersSource: Space-Track

Epoch: Sep 12, 2026, 12:53 UTC

1 31099U 99025BGV 26255.53735218  .00000306  00000-0  13851-3 0  9991
2 31099  98.9121 159.0890 0062380 206.0756 279.9213 14.28244688 13724

Volg FENGYUN 1C DEB in realtime met AllMySat

Download on the App Store